Location: Little Arabia
(41.4620°N, 81.7687°W)
Time: 20:52:27
(UTC+00:00)

Cosmos 2369 - Pass Details

Date: 29 October 2020
Orbit: 841 x 854 km, 71.0° (Epoch: 03 December)

Event Time Altitude Azimuth Distance (km) Brightness Sun altitude
Rises 23:30:31 0° 189° (S) 3,406 7.1 -12.8°
Reaches altitude 10° 23:33:00 10° 185° (S) 2,474 6.3 -13.2°
Maximum altitude 23:38:32 56° 108° (ESE) 1,012 3.8 -14.3°
Drops below altitude 10° 23:44:05 10° 32° (NNE) 2,482 5.8 -15.3°
Enters shadow 23:45:17 - 30° (NNE) 2,932 6.2 -15.5°
